Voltar ao catálogo

CZ-6A DEB

AtivoPO
NORAD 54428·DEBRIS·🇨🇳 China

Lançado Nov 11, 2022 de Taiyuan Satellite Launch Center

Loading…

Próximas Passagens (próximas 24 horas)

TLE

AtualizadoSource: Space-Track

Época: Sep 14, 2026, 13:36 UTC

1 54428U 22151FC  26257.56690877  .00000029  00000-0  85163-4 0  9992
2 54428  99.0856 118.9440 0463982 234.6334 121.0598 13.26971909185722

Acompanhe CZ-6A DEB em tempo real com AllMySat

Download on the App Store